EN

Hourly Weather Abbakumovo

Today, 19 June, Saturday

Time Temperature Precipitation Wind Pressure Humidity
00:00 +16°C° 0 mm 2 mps 749 mmHg 87%
01:00 +15°C° 0 mm 2 mps 749 mmHg 90%
02:00 +14°C° 0 mm 2 mps 749 mmHg 92%
03:00 +15°C° 0 mm 2 mps 749 mmHg 91%
04:00 +15°C° 0 mm 2 mps 749 mmHg 90%
05:00 +16°C° 0 mm 2 mps 750 mmHg 89%
06:00 +18°C° 0 mm 2 mps 750 mmHg 81%
07:00 +19°C° 0 mm 2 mps 750 mmHg 74%
08:00 +21°C° 0 mm 2 mps 750 mmHg 67%
09:00 +23°C° 0 mm 2 mps 749 mmHg 62%
10:00 +24°C° 0 mm 2 mps 749 mmHg 57%
11:00 +26°C° 0 mm 2 mps 749 mmHg 51%
12:00 +26°C° 0 mm 2 mps 749 mmHg 50%
13:00 +27°C° 0 mm 2 mps 749 mmHg 48%
14:00 +27°C° 0 mm 2 mps 748 mmHg 47%
15:00 +27°C° 0 mm 2 mps 748 mmHg 51%
16:00 +27°C° 0 mm 2 mps 748 mmHg 55%
17:00 +27°C° 0 mm 2 mps 747 mmHg 58%
18:00 +25°C° 0 mm 2 mps 747 mmHg 65%
19:00 +23°C° 0 mm 2 mps 747 mmHg 72%
20:00 +20°C° 0 mm 2 mps 747 mmHg 79%
21:00 +19°C° 0 mm 2 mps 747 mmHg 82%
22:00 +18°C° 0 mm 2 mps 747 mmHg 85%
23:00 +17°C° 0 mm 2 mps 748 mmHg 89%

Tomorrow, 20 June, Sunday

Time Temperature Precipitation Wind Pressure Humidity
00:00 +17°C° 0 mm 2 mps 748 mmHg 90%
01:00 +17°C° 0 mm 2 mps 748 mmHg 91%
02:00 +16°C° 0 mm 2 mps 748 mmHg 92%
03:00 +18°C° 0 mm 1 mps 748 mmHg 92%
04:00 +18°C° 0 mm 1 mps 748 mmHg 92%
05:00 +19°C° 0 mm 1 mps 748 mmHg 91%
06:00 +21°C° 0 mm 1 mps 748 mmHg 85%
07:00 +23°C° 0 mm 2 mps 748 mmHg 79%
08:00 +25°C° 0 mm 2 mps 748 mmHg 73%
09:00 +26°C° 0 mm 2 mps 747 mmHg 69%
10:00 +27°C° 0 mm 2 mps 747 mmHg 64%
11:00 +28°C° 0 mm 2 mps 747 mmHg 60%
12:00 +28°C° 0 mm 2 mps 747 mmHg 57%
13:00 +29°C° 0 mm 1 mps 747 mmHg 55%
14:00 +30°C° 0 mm 1 mps 746 mmHg 53%
15:00 +29°C° 0 mm 1 mps 746 mmHg 55%
16:00 +29°C° 0 mm 2 mps 746 mmHg 58%
17:00 +29°C° 0 mm 2 mps 746 mmHg 61%
18:00 +27°C° 0 mm 2 mps 746 mmHg 67%
19:00 +25°C° 0 mm 2 mps 746 mmHg 73%
20:00 +22°C° 0 mm 3 mps 746 mmHg 80%
21:00 +21°C° 0 mm 3 mps 746 mmHg 81%
22:00 +20°C° 0 mm 2 mps 746 mmHg 81%
23:00 +19°C° 0 mm 2 mps 746 mmHg 82%

Day after tomorrow, 21 June, Monday

Time Temperature Precipitation Wind Pressure Humidity
00:00 +18°C° 0 mm 2 mps 746 mmHg 85%
01:00 +18°C° 0 mm 2 mps 746 mmHg 87%
02:00 +17°C° 0 mm 2 mps 746 mmHg 90%
03:00 +18°C° 0 mm 2 mps 746 mmHg 89%
04:00 +18°C° 0 mm 2 mps 746 mmHg 88%
05:00 +20°C° 0 mm 1 mps 746 mmHg 87%
06:00 +20°C° 0 mm 2 mps 746 mmHg 82%
07:00 +21°C° 0 mm 2 mps 746 mmHg 76%
08:00 +24°C° 0 mm 3 mps 746 mmHg 71%
09:00 +25°C° 0 mm 3 mps 746 mmHg 65%
10:00 +26°C° 0 mm 3 mps 746 mmHg 59%
11:00 +28°C° 0 mm 3 mps 746 mmHg 54%
12:00 +28°C° 0 mm 3 mps 746 mmHg 52%
13:00 +29°C° 0 mm 3 mps 745 mmHg 50%
14:00 +30°C° 0 mm 3 mps 745 mmHg 48%
15:00 +29°C° 0 mm 3 mps 745 mmHg 52%
16:00 +29°C° 0 mm 3 mps 745 mmHg 57%
17:00 +28°C° 0 mm 3 mps 745 mmHg 61%
18:00 +27°C° 0 mm 3 mps 745 mmHg 68%
19:00 +25°C° 0 mm 3 mps 745 mmHg 75%
20:00 +22°C° 0 mm 3 mps 745 mmHg 82%
21:00 +21°C° 0 mm 3 mps 745 mmHg 86%
22:00 +20°C° 0 mm 3 mps 745 mmHg 90%
23:00 +20°C° 0 mm 3 mps 745 mmHg 93%

22 June, Tuesday

Time Temperature Precipitation Wind Pressure Humidity
00:00 +19°C° 0 mm 3 mps 745 mmHg 94%
01:00 +19°C° 0 mm 2 mps 745 mmHg 94%
02:00 +19°C° 0 mm 2 mps 745 mmHg 95%
03:00 +19°C° 0 mm 2 mps 745 mmHg 94%
04:00 +19°C° 0 mm 2 mps 745 mmHg 93%
05:00 +20°C° 0 mm 2 mps 745 mmHg 92%
06:00 +22°C° 0 mm 3 mps 745 mmHg 84%
07:00 +24°C° 0 mm 3 mps 746 mmHg 77%
08:00 +26°C° 0 mm 4 mps 746 mmHg 70%
09:00 +28°C° 0 mm 4 mps 746 mmHg 64%
10:00 +29°C° 0 mm 4 mps 746 mmHg 58%
11:00 +30°C° 0 mm 4 mps 746 mmHg 52%
12:00 +32°C° 0 mm 4 mps 746 mmHg 51%
13:00 +32°C° 0 mm 4 mps 746 mmHg 50%
14:00 +33°C° 0 mm 4 mps 745 mmHg 48%
15:00 +33°C° 0 mm 4 mps 745 mmHg 52%
16:00 +32°C° 0 mm 4 mps 745 mmHg 56%
17:00 +30°C° 0 mm 4 mps 745 mmHg 59%
18:00 +28°C° 0 mm 4 mps 745 mmHg 67%
19:00 +27°C° 0 mm 3 mps 745 mmHg 74%
20:00 +25°C° 0 mm 3 mps 745 mmHg 81%
21:00 +24°C° 0 mm 3 mps 746 mmHg 85%
22:00 +22°C° 0 mm 3 mps 746 mmHg 89%
23:00 +21°C° 0 mm 3 mps 746 mmHg 93%

23 June, Wednesday

Time Temperature Precipitation Wind Pressure Humidity
00:00 +21°C° 0 mm 2 mps 746 mmHg 94%
01:00 +21°C° 0 mm 2 mps 746 mmHg 94%
02:00 +20°C° 0 mm 2 mps 746 mmHg 95%
03:00 +21°C° 0 mm 2 mps 746 mmHg 94%
04:00 +21°C° 0 mm 2 mps 747 mmHg 92%
05:00 +21°C° 0 mm 2 mps 747 mmHg 91%
06:00 +24°C° 0 mm 2 mps 747 mmHg 84%
07:00 +25°C° 0 mm 2 mps 747 mmHg 77%
08:00 +27°C° 0 mm 3 mps 747 mmHg 70%
09:00 +28°C° 0 mm 3 mps 747 mmHg 64%
10:00 +30°C° 0 mm 3 mps 747 mmHg 58%
11:00 +31°C° 0 mm 3 mps 747 mmHg 53%
12:00 +33°C° 0 mm 3 mps 747 mmHg 49%
13:00 +33°C° 0 mm 3 mps 747 mmHg 46%
14:00 +34°C° 0 mm 3 mps 747 mmHg 43%
15:00 +33°C° 0 mm 3 mps 747 mmHg 48%
16:00 +32°C° 0 mm 2 mps 747 mmHg 52%
17:00 +31°C° 0 mm 2 mps 747 mmHg 57%
18:00 +29°C° 0 mm 2 mps 746 mmHg 63%
19:00 +27°C° 0 mm 3 mps 746 mmHg 70%
20:00 +25°C° 0 mm 3 mps 746 mmHg 76%
21:00 +24°C° 0 mm 3 mps 746 mmHg 79%
22:00 +24°C° 0 mm 2 mps 747 mmHg 81%
23:00 +23°C° 0 mm 2 mps 747 mmHg 84%

24 June, Thursday

Time Temperature Precipitation Wind Pressure Humidity
00:00 +23°C° 0 mm 2 mps 747 mmHg 87%
01:00 +21°C° 0 mm 2 mps 747 mmHg 91%
02:00 +21°C° 0 mm 2 mps 747 mmHg 94%
03:00 +23°C° 0 mm 2 mps 747 mmHg 93%
04:00 +23°C° 0 mm 2 mps 747 mmHg 93%
05:00 +23°C° 0 mm 1 mps 747 mmHg 92%
06:00 +25°C° 0 mm 2 mps 747 mmHg 85%
07:00 +27°C° 0 mm 2 mps 747 mmHg 79%
08:00 +28°C° 0 mm 2 mps 747 mmHg 72%
09:00 +29°C° 0 mm 2 mps 747 mmHg 66%
10:00 +30°C° 0 mm 2 mps 747 mmHg 61%
11:00 +32°C° 0 mm 2 mps 747 mmHg 55%
12:00 +32°C° 0 mm 2 mps 747 mmHg 52%
13:00 +34°C° 0 mm 2 mps 746 mmHg 49%
14:00 +33°C° 0 mm 1 mps 746 mmHg 46%
15:00 +33°C° 0 mm 1 mps 746 mmHg 51%
16:00 +33°C° 0 mm 1 mps 746 mmHg 56%
17:00 +32°C° 0 mm 1 mps 746 mmHg 61%
18:00 +30°C° 0 mm 2 mps 745 mmHg 66%
19:00 +28°C° 0 mm 2 mps 745 mmHg 72%
20:00 +27°C° 0 mm 2 mps 744 mmHg 78%
21:00 +26°C° 0.1 mm 2 mps 745 mmHg 80%
22:00 +25°C° 0.1 mm 2 mps 745 mmHg 83%
23:00 +24°C° 0.1 mm 2 mps 745 mmHg 85%
Show more